Regional Weather Roundup
Issued by NWS

Home | Current Version | Previous Version | Graphics & Text | Print | Product List | Glossary On
Versions: 1 2 3 4 5 6 7 8 9 10 11 12 13 14 15 16 17 18 19 20 21 22 23 24 25 26 27 28 29 30 31 32 33 34 35 36 37 38 39 40 41 42 43 44 45 46 47 48 49 50
000
ASUS45 KSLC 181310
RWRUT

UTAH REGIONAL WEATHER ROUNDUP
NATIONAL WEATHER SERVICE SALT LAKE CITY UT
700 AM MDT SAT APR 18 2015

UTZ001>011-023>025-181400-

NORTHERN UTAH

CITY           SKY/WX    TMP DP  RH WIND       PRES   REMARKS
BRIGHAM CITY   CLEAR     40  33  76 NW3       30.04S
HILL AFB       CLEAR     42  35  79 E15       30.03R
LOGAN          CLEAR     35  31  85 CALM      30.05R
OGDEN          CLEAR     41  35  79 S6        30.02R
PROVO AIRPORT  CLEAR     37  32  81 E6        30.05R WCI  33
SALT LAKE CITY PTCLDY    42  36  79 SE7       30.02S
VERNAL         MOCLDY    39  36  89 E5        30.02S
WENDOVER       PTCLDY    55  21  26 NW16G22   30.03S
HEBER CITY     CLEAR     30  28  93 SE3       30.08R
WEST JORDAN    CLEAR     39  36  87 CALM      30.03S

$$

UTZ012>022-026-027-181400-

SOUTHERN/CENTRAL UTAH

CITY           SKY/WX    TMP DP  RH WIND       PRES   REMARKS
BLANDING       CLOUDY    31  31 100 NW5       30.12R VSB 1/4 WCI  26
BRYCE CANYON   CLEAR     27  22  81 S3        30.09R
CEDAR CITY     CLEAR     32  26  78 CALM      30.06S
DELTA          CLEAR     32  27  81 E3        30.05R
HANKSVILLE     PTCLDY    41  41 100 N3        30.05R
MILFORD        CLEAR     29  24  82 S7        30.06R WCI  22
MOAB/CYNLANDS  CLOUDY    37  36  96 W5        30.02S WCI  33
PRICE          PTCLDY    36  31  82 N7        30.03R WCI  30
ST GEORGE      SUNNY     45  25  45 SW5       30.04R
KANAB          CLEAR     30  28  93 NE5       30.10R WCI  25

$$

REGIONAL REPORTS     COLORADO/ARIZONA

CITY           SKY/WX    TMP DP  RH WIND       PRES   REMARKS
CRAIG, CO      CLOUDY    34  30  85 W9        30.00F WCI  27
GRAND JUNCTION FOG       33  33 100 SE8       30.04F VSB 1/4 WCI  26
RIFLE          FLURRIES  35  31  85 CALM      30.03F
MONTROSE       CLOUDY    33  31  92 SE10      30.07S WCI  25
CORTEZ         PTCLDY    31  30  96 NE5       30.03F WCI  26
PAGE, AZ       CLEAR     46  35  65 W3        30.02R
GRAND CANYON   CLEAR     22  20  92 CALM      30.11R
KINGMAN        CLEAR     40  19  43 E6        30.01S
FLAGSTAFF      CLEAR     32  23  69 W6        30.11R WCI  26

$$

REGIONAL REPORTS    NEVADA/IDAHO/WYOMING

CITY           SKY/WX    TMP DP  RH WIND       PRES   REMARKS
LAS VEGAS, NV  CLEAR     60  21  22 SW6       29.93R
ELY            PTCLDY    24  11  57 S16       30.13R WCI  11
ELKO           CLEAR     30  20  66 CALM      30.13R
POCATELLO, ID  CLEAR     42  28  57 SW10      30.08R
BURLEY         CLEAR     40  29  64 W9        30.06R WCI  34
EVANSTON, WY   PTCLDY    32  27  81 S3        30.08R
ROCK SPRINGS   PTCLDY    32  31  96 W8        30.04S FOG     WCI  25

$$


USA.gov is the U.S. government's official web portal to all federal, state and local government web resources and services.